Location: La Comballaz
(46.3780°N, 7.0817°E)
Time: 06:53:25
(UTC+00:00)

SL-16 R/B - Pass Details

Date: 09 April 2020
Orbit: 842 x 846 km, 71.0° (Epoch: 02 June)

Event Time Altitude Azimuth Distance (km) Brightness Sun altitude
Rises 21:29:21 0° 339° (NNW) 3,414 6.5 -29.0°
Reaches altitude 10° 21:32:10 10° 351° (N) 2,476 5.4 -29.3°
Enters shadow 21:37:00 28° 49° (NE) 1,542 3.6 -29.8°
